Location: Davayat
(45.9471°N, 3.1105°E)
Time: 22:02:18
(UTC+00:00)

Meteor 2-12 Rocket - Pass Details

Date: 25 April 2021
Orbit: 935 x 958 km, 82.5° (Epoch: 16 May)

Event Time Altitude Azimuth Distance (km) Brightness Sun altitude
Rises 23:25:50 0° 351° (N) 3,627 8.7 -30.4°
Reaches altitude 10° 23:28:21 10° 352° (N) 2,675 7.7 -30.4°
Enters shadow 23:34:06 79° 18° (NNE) 963 4.4 -30.5°
